| time (UTC) | temp F | wind direction | speed MPH | gust MPH | rain 1hr in | rain 24hr in | rain mn in | humidity % | barometer mb |
| 20260504140343 | 69 | 137 | 2.0 | 1.0 | 0.00 | 0.00 | 0.00 | 95 | 1015.0 |
| 20260504130341 | 61 | 105 | 1.0 | 1.0 | 0.00 | 0.00 | 0.00 | 95 | 1015.0 |
| 20260504110337 | 54 | 295 | 0.0 | 0.0 | 0.00 | 0.00 | 0.00 | 91 | 1015.0 |
| 20260504100335 | 54 | 307 | 0.0 | 1.0 | 0.00 | 0.00 | 0.00 | 91 | 1015.0 |
| 20260504080331 | 55 | 334 | 0.0 | 1.0 | 0.00 | 0.00 | 0.00 | 91 | 1015.0 |
| 20260504070329 | 56 | 287 | 1.0 | 1.0 | 0.00 | 0.00 | 0.00 | 93 | 1015.0 |
| 20260504050325 | 57 | 299 | 1.0 | 1.0 | 0.00 | 0.00 | 0.00 | 90 | 1016.0 |
| 20260504043324 | 59 | 299 | 1.0 | 1.0 | 0.03 | 0.00 | 0.00 | 90 | 1016.0 |
| 20260504040324 | 61 | 299 | 2.0 | 1.0 | 0.02 | 0.00 | 0.00 | 90 | 1016.0 |
| 20260504033323 | 55 | 311 | 1.0 | 3.0 | 0.00 | 0.00 | 0.00 | 89 | 1016.0 |
| 20260504030322 | 57 | 311 | 1.0 | 3.0 | 0.00 | 0.00 | 0.00 | 89 | 1016.0 |
| 20260504023320 | 59 | 311 | 1.0 | 3.0 | 0.00 | 0.00 | 0.00 | 89 | 1016.0 |
| 20260504020319 | 61 | 311 | 2.0 | 3.0 | 0.00 | 0.00 | 0.00 | 89 | 1015.0 |
| 20260504013318 | 56 | 280 | 3.0 | 3.0 | 0.00 | 0.00 | 0.00 | 89 | 1015.0 |
| 20260504010317 | 58 | 280 | 3.0 | 3.0 | 0.00 | 0.00 | 0.00 | 89 | 1014.0 |
| 20260504003316 | 60 | 280 | 3.0 | 3.0 | 0.00 | 0.00 | 0.00 | 89 | 1014.0 |
| 20260504000315 | 62 | 280 | 3.0 | 3.0 | 0.00 | 0.00 | 0.00 | 89 | 1013.0 |
| 20260503233313 | 64 | 280 | 3.0 | 3.0 | 0.00 | 0.00 | 0.00 | 89 | 1012.0 |
| 20260503230312 | 59 | 301 | 3.0 | 5.0 | 0.00 | 0.00 | 0.00 | 82 | 1011.0 |
| 20260503223311 | 61 | 301 | 3.0 | 5.0 | 0.00 | 0.00 | 0.00 | 82 | 1011.0 |
| 20260503220310 | 63 | 301 | 3.0 | 5.0 | 0.00 | 0.00 | 0.00 | 82 | 1011.0 |
| 20260503213309 | 65 | 301 | 3.0 | 5.0 | 0.00 | 0.00 | 0.00 | 82 | 1010.0 |
| 20260503210308 | 64 | 302 | 1.0 | 1.0 | 0.00 | 0.00 | 0.00 | 71 | 1010.0 |
| 20260503203307 | 66 | 302 | 1.0 | 1.0 | 0.00 | 0.00 | 0.00 | 71 | 1010.0 |
| 20260503200305 | 68 | 302 | 1.0 | 1.0 | 0.00 | 0.00 | 0.00 | 71 | 1010.0 |
| 20260503193305 | 70 | 302 | 1.0 | 1.0 | 0.00 | 0.00 | 0.00 | 71 | 1010.0 |
| 20260503190303 | 72 | 302 | 1.0 | 1.0 | 0.00 | 0.00 | 0.00 | 71 | 1010.0 |
| 20260503183302 | 74 | 302 | 1.0 | 1.0 | 0.00 | 0.00 | 0.00 | 71 | 1010.0 |
| 20260503180301 | 76 | 302 | 2.0 | 2.0 | 0.00 | 0.00 | 0.00 | 71 | 1011.0 |
| 20260503173300 | 71 | 301 | 2.0 | 2.0 | 0.00 | 0.00 | 0.00 | 77 | 1012.0 |
| 20260503170259 | 73 | 308 | 0.0 | 2.0 | 0.00 | 0.00 | 0.00 | 77 | 1013.0 |